Wind_Speed
34 39 42 42 44 42 44 40 43 53 58 59 59 56 52 52 50 49 47 44 42 39
36 37 40 37 45 38 42 44 30 53 56 56 57 54 51 48 48 47 46 44 41 39
34 36 29 35 37 37 36 35 48 41 51 54 55 50 49 46 43 43 44 44 42 40
27 36 25 9 26 32 29 34 46 53 52 51 51 52 49 47 38 40 42 44 42 41
37 29 27 24 18 14 35 37 47 50 49 50 52 51 48 49 42 42 40 41 41 43
22 23 32 33 27 18 22 34 36 34 39 43 47 46 45 46 45 43 41 39 41 43
4 12 18 29 32 30 26 33 31 29 30 32 34 36 37 37 41 42 40 39 40 42
10 13 11 15 24 28 33 33 36 31 28 28 28 30 31 34 37 40 41 40 41 42
23 24 25 21 29 28 29 29 31 27 26 29 31 32 30 30 37 37 37 39 42 43
28 29 29 25 16 19 24 22 17 21 23 26 30 33 33 33 36 38 41 42 45 42
30 27 24 22 22 20 19 15 15 20 20 24 28 30 34 36 39 41 44 45 46 46
27 25 23 22 19 16 13 12 11 7 6 13 27 27 31 30 42 42 43 41 46 48
21 19 19 17 16 14 12 9 6 3 1 6 10 13 17 21 25 25 30 34 38 30
20 19 17 14 11 10 8 7 4 3 4 6 9 12 14 16 23 27 28 29 29 26
Wind_Direction
241 238 244 232 239 234 231 225 232 231 213 213 217 212 210 213 212 213 216 219 222 226
242 240 229 235 231 229 226 220 200 186 195 207 212 208 210 213 212 215 218 222 225 229
244 239 232 239 222 219 215 210 219 221 209 210 208 207 208 211 214 217 221 224 227 229
234 222 236 213 207 207 212 212 219 210 211 211 204 208 211 212 216 219 223 226 229 232
220 225 234 254 255 204 205 206 203 209 213 213 208 209 213 213 217 221 223 226 231 233
211 234 243 238 227 213 214 203 207 208 213 216 214 212 215 222 222 223 225 232 234 234
217 282 236 216 205 215 216 217 205 208 211 217 222 225 230 228 229 226 231 234 237 237
92 58 188 183 193 199 207 215 210 210 216 212 217 216 217 222 222 226 235 234 243 243
91 81 87 152 185 191 198 211 205 211 217 214 217 219 226 236 232 237 239 243 244 243
81 82 79 78 88 173 191 194 203 209 215 223 228 229 235 240 239 241 245 249 249 244
63 75 84 84 83 82 97 148 209 213 215 230 235 235 238 243 244 247 249 249 252 245
54 58 61 64 71 80 89 100 111 132 192 231 227 228 233 249 241 244 245 245 249 240
66 63 58 54 52 54 55 57 53 40 234 229 218 216 224 238 250 257 235 236 251 243
54 53 53 55 58 47 35 25 15 332 291 279 264 263 261 252 246 255 250 246 246 251
Height
1419 1421 1422 1426 1427 1430 1435 1437 1444 1449 1454 1460 1472 1481 1489 1496 1503 1509 1516 1521 1526 1530
1413 1415 1416 1419 1420 1423 1426 1433 1433 1435 1443 1455 1465 1474 1484 1491 1498 1505 1511 1517 1522 1526
1410 1409 1410 1408 1412 1414 1417 1421 1435 1439 1444 1452 1461 1471 1479 1486 1493 1499 1506 1512 1517 1520
1401 1402 1401 1398 1406 1409 1408 1418 1427 1435 1442 1448 1455 1466 1474 1481 1487 1494 1500 1506 1510 1514
1396 1400 1398 1399 1401 1408 1412 1414 1422 1431 1439 1445 1453 1461 1468 1475 1481 1488 1493 1499 1503 1506
1394 1395 1394 1398 1400 1404 1408 1416 1422 1429 1436 1443 1450 1457 1464 1471 1476 1482 1488 1492 1496 1499
1388 1385 1381 1387 1393 1402 1409 1415 1421 1429 1435 1441 1448 1455 1460 1465 1471 1476 1481 1485 1489 1492
1386 1381 1378 1385 1392 1400 1407 1416 1421 1429 1435 1440 1444 1450 1456 1461 1465 1470 1475 1478 1482 1485
1389 1388 1387 1388 1394 1400 1408 1415 1421 1427 1433 1438 1443 1449 1453 1457 1461 1465 1468 1470 1474 1477
1394 1395 1396 1398 1399 1401 1408 1414 1420 1427 1433 1438 1441 1445 1449 1454 1458 1459 1462 1465 1467 1469
1402 1402 1405 1407 1408 1410 1412 1415 1423 1426 1431 1435 1437 1443 1446 1450 1452 1453 1455 1457 1459 1461
1412 1413 1415 1416 1416 1417 1419 1421 1425 1429 1431 1432 1434 1438 1442 1444 1443 1444 1445 1448 1450 1451
1423 1424 1425 1425 1424 1425 1427 1427 1429 1431 1433 1434 1436 1436 1437 1439 1440 1440 1436 1441 1443 1441
1425 1425 1426 1426 1425 1426 1429 1432 1432 1433 1435 1435 1435 1435 1435 1436 1437 1437 1435 1435 1436 1437